Location: Lussas
(44.6119°N, 4.4726°E)
Time: 16:30:45
(UTC+00:00)

SL-4 R/B - Pass Details

Date: 26 November 2020
Orbit: 428 x 664 km, 51.6° (Epoch: 28 January)

Event Time Altitude Azimuth Distance (km) Brightness Sun altitude
Exits shadow 06:09:13 10° 296° (WNW) 1,718 3.9 -7.9°
Maximum altitude 06:12:33 27° 356° (N) 955 3.0 -7.4°
Drops below altitude 10° 06:15:44 10° 57° (ENE) 1,620 4.9 -6.8°
Sets 06:18:02 0° 70° (ENE) 2,462 6.1 -6.5°
